[[{"header":{"parameterUnit":"m.s-1","parameterCategory":2,"la1":30.2991,"la2":30.254,"lo1":-89.0895,"lo2":-89.0444,"dy":0.0017,"dx":0.0017,"nx":28,"ny":28,"refTime":"2025-03-19T03:00:00:Z","depth":"0","parameterNumber":2,"parameterNumberName":"U-component_of_CURRENTS"},"data":[0,0,0,0,0,0,0,0,0,0,0,0,0,0,0,0,0,0,0,0,0,0,0,0,0,0,0,0,0,0,0,0,0,0,0,0,0,0,0,0,0,0,0,0,0,0,0,0,0,0,0,0,0,0,0,0,0,0,0.2832,0.2833,0,0.2896,0.2896,0.2897,0.2852,0.285,0.2849,0.2847,0.2877,0.2879,0.2881,0,0,0,0,0,0,0,0,0,0,0,0,0,0.2685,0.2688,0.2832,0.2833,0.2835,0.2896,0.2896,0.2897,0.2852,0.285,0.2848,0.2846,0.2876,0.2879,0.2882,0,0,0,0,0,0,0,0,0,0,0,0,0,0.2746,0.2689,0.2832,0.2822,0.2822,0.2896,0.2896,0.2897,0.2853,0.285,0.2848,0.2845,0.2875,0.2878,0.2882,0.2954,0,0,0.2893,0.2894,0,0,0,0,0,0,0,0,0.2742,0.2751,0.2823,0.2823,0.2823,0.2866,0.2856,0.2916,0.2853,0.2838,0.2847,0.2844,0.2874,0.2878,0.2891,0.2956,0.2957,0.2893,0.2895,0.2897,0.2898,0,0,0,0,0,0,0,0.2738,0.2748,0.2854,0.2824,0.2825,0.2819,0.2825,0.2867,0.2866,0.2839,0.2836,0.285,0.2873,0.2888,0.2891,0.2958,0.2893,0.2896,0.2898,0.29,0.3066,0.3068,0,0,0,0,0,0,0.274,0.2745,0.2852,0.2856,0.278,0.2824,0.283,0.2852,0.2866,0.2867,0.2852,0.2848,0.2883,0.2887,0.2892,0.2979,0.2897,0.29,0.2902,0.3064,0.3067,0.3069,0,0,0,0,0,0,0.2737,0.275,0.285,0.2803,0.2816,0.283,0.2855,0.2855,0.2859,0.2877,0.2876,0.2855,0.2881,0.2887,0.2933,0.2979,0.2902,0.2905,0.3061,0.3065,0.3068,0.3152,0,0,0,0,0,0,0.2733,0.2748,0.2764,0.2804,0.2819,0.2893,0.2858,0.2858,0.2874,0.2868,0.2881,0.2881,0.2879,0.2928,0.2937,0.2983,0.2908,0.3058,0.3063,0.3067,0.3147,0.3158,0.3168,0,0,0,0,0,0.2727,0.2766,0.2764,0.2777,0.2841,0.2895,0.2902,0.29,0.2876,0.2891,0.29,0.288,0.2961,0.2933,0.2943,0.2991,0.3056,0.3062,0.3067,0.3142,0.3156,0.3168,0,0,0,0,0,0,0.2709,0.2767,0.2765,0.2818,0.2851,0.2888,0.2913,0.2906,0.2927,0.2923,0.2917,0.292,0.2981,0.2977,0.2946,0.3051,0.3004,0.3011,0.3058,0.3071,0.3082,0.3119,0.2911,0,0,0,0,0,0.2716,0.2758,0.2803,0.2843,0.2867,0.2888,0.2909,0.2911,0.2938,0.2942,0.2951,0.2972,0.3016,0.3031,0.3066,0.3128,0.3154,0.3163,0.3174,0.3183,0.322,0.3321,0.3345,0.3086,0.3086,0.3086,0,0,0.2713,0.2758,0.2775,0.2842,0.2871,0.2917,0.2894,0.2939,0.297,0.2948,0.2994,0.3016,0.3043,0.3111,0.3136,0.3108,0.3262,0.3189,0.3197,0.323,0.3329,0.3354,0.3377,0.309,0.3089,0.3089,0,0,0.2747,0.278,0.2826,0.2865,0.2923,0.2944,0.2956,0.2998,0.301,0.3063,0.3063,0.3123,0.3158,0.3208,0.3233,0.3331,0.3321,0.3321,0.3405,0.3501,0.3524,0.3544,0.3573,0.3596,0.332,0.332,0.332,0,0.2738,0.2821,0.2845,0.2905,0.2949,0.2956,0.3014,0.3037,0.3082,0.3133,0.3081,0.3211,0.3219,0.3345,0.3367,0.336,0.3385,0.3349,0.3517,0.3538,0.3558,0.3583,0.3607,0.3325,0.3324,0.3324,0.3323,0,0.2813,0.2876,0.2916,0.2992,0.3026,0.3095,0.3127,0.3167,0.3176,0.3217,0.333,0.3353,0.3438,0.344,0.343,0.3581,0.3541,0.3523,0.3485,0.3589,0.3608,0.3632,0.3332,0.333,0.3328,0.3327,0,0,0.2807,0.2944,0.2957,0.3021,0.3093,0.314,0.3201,0.33,0.3374,0.3407,0.3524,0.3594,0.3621,0.3653,0.3656,0.3725,0.3857,0.3681,0.3683,0.3712,0.403,0.3837,0.3843,0.3867,0.3872,0.3876,0.3974,0,0.2867,0.3025,0.305,0.3165,0.3258,0.3281,0.3342,0.3418,0.3475,0.3584,0.3649,0.3746,0.3694,0.374,0.3815,0.386,0.3929,0.383,0.3926,0.3928,0.3747,0.3868,0.3685,0.3744,0.3997,0.4001,0.4003,0,0.2936,0.3049,0.3197,0.3318,0.335,0.3392,0.3527,0.3577,0.3716,0.3765,0.3882,0.3921,0.4053,0.3972,0.4124,0.4059,0.4068,0.4077,0.408,0.3898,0.3781,0.369,0.3777,0.3752,0.4039,0.4036,0.4034,0,0.2997,0.3138,0.3276,0.3323,0.345,0.3501,0.3544,0.3659,0.3725,0.3893,0.3965,0.4119,0.4175,0.4257,0.425,0.4213,0.4381,0.4332,0.4168,0.4152,0.4017,0.3978,0.4098,0.4462,0.4462,0.4462,0.4462,0,0.3097,0.3192,0.3319,0.3409,0.3522,0.3569,0.3683,0.375,0.387,0.3958,0.4063,0.4146,0.4251,0.433,0.4337,0.4311,0.4456,0.4222,0.4192,0.403,0.3994,0.3977,0.3962,0.4466,0.4465,0.4464,0.4463,0,0.3152,0.3251,0.3394,0.3538,0.3566,0.364,0.3716,0.3794,0.3902,0.4017,0.4068,0.4207,0.4272,0.4334,0.4441,0.4377,0.4286,0.4352,0.4109,0.4048,0.3811,0.3805,0.372,0.3633,0.4203,0.4199,0.4196,0,0.3202,0.33,0.3461,0.3504,0.3561,0.3657,0.3702,0.3805,0.3857,0.4021,0.4063,0.4179,0.4201,0.4273,0.4204,0.4188,0.4145,0.4002,0.39,0.3807,0.3783,0.365,0.3577,0.3753,0.3746,0.3741,0.3736,0,0.3279,0.3332,0.3449,0.3529,0.3586,0.3633,0.3693,0.3736,0.3831,0.3903,0.3964,0.4009,0.4044,0.3928,0.3888,0.3857,0.3823,0.3882,0.3905,0.3545,0.33,0.3196,0.3642,0.3688,0.3693,0.3697,0.3699,0.3701,0.3285,0.3353,0.3467,0.3497,0.3547,0.3529,0.3496,0.3549,0.3569,0.356,0.3732,0.3683,0.372,0.3603,0.3563,0.3408,0.3422,0.3328,0.3359,0.3257,0.3079,0.3364,0.3288,0.3291,0.3293,0.3295,0.3296,0,0.3259,0.3329,0.3392,0.3406,0.3356,0.3414,0.3405,0.3315,0.3228,0.3294,0.3277,0.3246,0.3155,0.3186,0.3082,0.2961,0.2851,0.2923,0.2786,0.2766,0.315,0.3036,0.2757,0.2757,0.2757,0.2757,0.2757,0.2757,0.3253,0.3312,0.3315,0.3182,0.3149,0.2998,0.2935,0.285,0.283,0.2703,0.2648,0.2699,0.2908,0.2957,0.2841,0.2756,0.2653,0.2457,0.2546,0.2922,0.2965,0.3006,0.2901,0.2599,0.2598,0.2035,0.2031,0.2028]},{"header":{"parameterUnit":"m.s-1","parameterCategory":2,"la1":30.2991,"la2":30.254,"lo1":-89.0895,"lo2":-89.0444,"dy":0.0017,"dx":0.0017,"nx":28,"ny":28,"refTime":"2025-03-19T03:00:00:Z","depth":"0","parameterNumber":3,"parameterNumberName":"V-component_of_CURRENTS"},"data":[0,0,0,0,0,0,0,0,0,0,0,0,0,0,0,0,0,0,0,0,0,0,0,0,0,0,0,0,0,0,0,0,0,0,0,0,0,0,0,0,0,0,0,0,0,0,0,0,0,0,0,0,0,0,0,0,0,0,-0.0012,-0.0011,0,0.0032,0.0032,0.0032,0.0032,0.0032,0.0031,0.0031,0.0034,0.0034,0.0035,0,0,0,0,0,0,0,0,0,0,0,0,0,-0.0027,-0.0027,-0.0012,-0.0011,-0.0011,0.0031,0.0032,0.0033,0.0032,0.0032,0.0031,0.003,0.0034,0.0034,0.0035,0,0,0,0,0,0,0,0,0,0,0,0,0,-0.0006,-0.0027,-0.0012,-0.0005,-0.0004,0.0031,0.0032,0.0033,0.0032,0.0032,0.0031,0.003,0.0033,0.0034,0.0035,0.0056,0,0,0.0038,0.0038,0,0,0,0,0,0,0,0,-0.0007,-0.0006,-0.0007,-0.0006,-0.0005,0.0026,0.0028,0.0039,0.0033,0.0018,0.0031,0.003,0.0028,0.003,0.0039,0.0056,0.0056,0.0038,0.0038,0.0039,0.0039,0,0,0,0,0,0,0,-0.0009,-0.0007,0.0005,-0.0006,-0.0005,0.0019,0.002,0.0031,0.0026,0.0019,0.0019,0.0025,0.0029,0.0039,0.0039,0.0057,0.0038,0.0039,0.0039,0.0039,0.0105,0.0106,0,0,0,0,0,0,-0.0016,-0.0009,0.0003,0.0006,-0.0007,0.002,0.0021,0.0017,0.0027,0.0028,0.0026,0.0025,0.0038,0.0038,0.0039,0.0084,0.0039,0.004,0.004,0.0103,0.0105,0.0106,0,0,0,0,0,0,-0.0017,-0.0016,0.0002,0.0001,0.0005,0.002,0.0016,0.0018,0.0029,0.0032,0.0033,0.0035,0.0037,0.0038,0.0054,0.0084,0.004,0.0041,0.0102,0.0104,0.0105,0.0162,0,0,0,0,0,0,-0.0017,-0.0016,-0.0019,-0.0,0.0004,0.0029,0.0016,0.0019,0.0034,0.0034,0.004,0.004,0.0036,0.0053,0.0055,0.0084,0.0041,0.01,0.0103,0.0105,0.0158,0.0165,0.0171,0,0,0,0,0,-0.0018,-0.0009,-0.0019,-0.0018,-0.0001,0.003,0.0035,0.0044,0.0036,0.0049,0.005,0.004,0.0069,0.0055,0.0057,0.0087,0.0099,0.0102,0.0105,0.0155,0.0164,0.0171,0,0,0,0,0,0,-0.0009,-0.0008,-0.0019,-0.001,0.0008,0.003,0.0048,0.0048,0.0062,0.0058,0.0054,0.0054,0.008,0.0075,0.0059,0.0112,0.0083,0.0087,0.0121,0.0129,0.0135,0.0171,0.0042,0,0,0,0,0,-0.0011,-0.0011,-0.0001,0.0008,0.0017,0.003,0.0044,0.0048,0.0062,0.0067,0.0072,0.0079,0.0095,0.0103,0.0113,0.0142,0.0131,0.0163,0.0169,0.0174,0.0205,0.0215,0.0226,0.0115,0.0115,0.0115,0,0,-0.0006,-0.0004,-0.0005,0.0009,0.0023,0.0046,0.0037,0.0063,0.0085,0.0065,0.0098,0.01,0.0106,0.0139,0.0151,0.0138,0.0192,0.0178,0.0183,0.0211,0.0219,0.023,0.024,0.0117,0.0117,0.0116,0,0,0.0017,0.0008,0.0019,0.0033,0.0053,0.0064,0.0071,0.0094,0.0108,0.0134,0.0131,0.0159,0.0169,0.0197,0.0207,0.0257,0.0224,0.0249,0.0315,0.0324,0.0333,0.0341,0.0306,0.0311,0.0254,0.0255,0.0255,0,0.0025,0.003,0.0032,0.0053,0.0071,0.0073,0.0101,0.0121,0.0145,0.0186,0.0148,0.0215,0.0206,0.0281,0.0291,0.0276,0.0254,0.0282,0.0333,0.0341,0.0348,0.0311,0.0316,0.0258,0.0257,0.0257,0.0257,0,0.0058,0.0061,0.0077,0.0093,0.0119,0.0141,0.0168,0.0204,0.0212,0.0242,0.031,0.0304,0.0354,0.0347,0.033,0.0396,0.0351,0.0335,0.0313,0.0363,0.0319,0.0323,0.0262,0.0261,0.026,0.0259,0,0,0.008,0.0093,0.0098,0.0119,0.0138,0.0177,0.0224,0.0294,0.0376,0.0372,0.0465,0.0478,0.0489,0.0502,0.0489,0.0495,0.0501,0.0438,0.0437,0.0404,0.0485,0.0425,0.0422,0.0485,0.0487,0.0489,0.042,0,0.0103,0.0136,0.0144,0.0198,0.022,0.0253,0.0321,0.0389,0.0442,0.0533,0.0542,0.0612,0.0542,0.0573,0.0567,0.0534,0.052,0.052,0.0443,0.0441,0.0383,0.0429,0.0437,0.0375,0.0423,0.0424,0.0424,0,0.0134,0.0151,0.0187,0.0268,0.0292,0.0336,0.0476,0.0541,0.0662,0.0709,0.0769,0.0774,0.0799,0.072,0.0676,0.0672,0.0588,0.0539,0.0535,0.0474,0.0391,0.0341,0.038,0.0276,0.043,0.0429,0.0429,0,0.0148,0.0197,0.0227,0.0242,0.0327,0.0389,0.0464,0.0601,0.0715,0.0827,0.0906,0.0924,0.0938,0.0856,0.0726,0.0705,0.0654,0.061,0.0474,0.0466,0.046,0.045,0.0401,0.0579,0.0579,0.058,0.058,0,0.0164,0.0203,0.0242,0.0259,0.0389,0.0431,0.0608,0.0701,0.0851,0.1008,0.0996,0.1087,0.0972,0.0921,0.0782,0.0636,0.0687,0.0505,0.0464,0.0474,0.0466,0.0364,0.0291,0.0577,0.0577,0.0578,0.0578,0,0.0184,0.0184,0.0252,0.0337,0.039,0.0495,0.0705,0.0855,0.0954,0.1145,0.1177,0.1215,0.114,0.0997,0.0864,0.0714,0.0505,0.0509,0.0502,0.0462,0.0237,0.0166,0.0053,0.0003,0.0362,0.036,0.0359,0,0.02,0.0211,0.0319,0.0415,0.0463,0.0622,0.0769,0.0907,0.1058,0.1228,0.1319,0.1297,0.131,0.107,0.0816,0.0571,0.0451,0.0399,0.0374,0.0246,0.0137,0.0077,0.0041,0.0365,0.0364,0.0363,0.0362,0,0.0254,0.0276,0.0348,0.0527,0.0672,0.0842,0.1026,0.1142,0.1306,0.1433,0.156,0.1571,0.1343,0.1117,0.0767,0.0585,0.0322,0.0369,0.0267,0.0171,0.0078,0.0004,0.035,0.0354,0.0355,0.0355,0.0356,0.0356,0.0328,0.0406,0.0511,0.0701,0.0858,0.1038,0.1175,0.1342,0.1537,0.1708,0.1705,0.1738,0.1413,0.0947,0.068,0.0238,0.0234,0.0117,0.0047,0.0002,-0.0047,0.0256,0.0195,0.0195,0.0195,0.0195,0.0195,0,0.0448,0.0542,0.0708,0.0905,0.1072,0.1133,0.1352,0.1473,0.1655,0.1796,0.1881,0.1757,0.1333,0.0907,0.0311,0.0001,-0.0107,-0.0165,-0.0217,-0.0234,0.0072,0.0073,-0.005,-0.005,-0.005,-0.005,-0.005,-0.005,0.0525,0.0695,0.0777,0.1064,0.119,0.1379,0.148,0.1636,0.1762,0.1923,0.1962,0.1977,0.1717,0.0601,-0.0085,-0.0247,-0.0431,-0.0515,-0.0597,-0.0363,-0.0341,-0.032,-0.0332,-0.0539,-0.054,-0.0845,-0.0848,-0.085]}],[{"header":{"parameterUnit":"m.s-1","parameterCategory":2,"la1":30.2991,"la2":30.254,"lo1":-89.0895,"lo2":-89.0444,"dy":0.0017,"dx":0.0017,"nx":28,"ny":28,"refTime":"2025-03-19T03:00:00:Z","depth":"2","parameterNumber":2,"parameterNumberName":"U-component_of_CURRENTS"},"data":[0,0,0,0,0,0,0,0,0,0,0,0,0,0,0,0,0,0,0,0,0,0,0,0,0,0,0,0,0,0,0,0,0,0,0,0,0,0,0,0,0,0,0,0,0,0,0,0,0,0,0,0,0,0,0,0,0,0,0.244,0.244,0,0.2497,0.2498,0.25,0.2479,0.2477,0.2476,0.2474,0.2438,0.2439,0.2439,0,0,0,0,0,0,0,0,0,0,0,0,0,0.2369,0.2371,0.244,0.244,0.244,0.2497,0.2498,0.25,0.248,0.2477,0.2475,0.2473,0.2438,0.2439,0.244,0,0,0,0,0,0,0,0,0,0,0,0,0,0.2417,0.2372,0.244,0.2432,0.2432,0.2497,0.2499,0.25,0.248,0.2477,0.2475,0.2472,0.2437,0.2439,0.244,0.2503,0,0,0.2443,0.2444,0,0,0,0,0,0,0,0,0.2414,0.242,0.2433,0.2433,0.2432,0.2473,0.246,0.2494,0.2481,0.2469,0.2474,0.2471,0.2439,0.244,0.2467,0.2501,0.2499,0.2443,0.2444,0.2445,0.2445,0,0,0,0,0,0,0,0.2411,0.2418,0.2469,0.2434,0.2433,0.2445,0.2449,0.2468,0.2472,0.2469,0.2466,0.2464,0.2438,0.2466,0.2466,0.2499,0.2443,0.2444,0.2445,0.2446,0.2605,0.2609,0,0,0,0,0,0,0.2391,0.2415,0.2467,0.247,0.2409,0.2448,0.2452,0.2468,0.2474,0.2471,0.2466,0.2462,0.2466,0.2464,0.2464,0.253,0.2445,0.2446,0.2446,0.2602,0.2606,0.261,0,0,0,0,0,0,0.239,0.2397,0.2465,0.2437,0.2446,0.2451,0.2469,0.247,0.2501,0.2471,0.2467,0.2494,0.2463,0.2462,0.2473,0.2528,0.2446,0.2447,0.2598,0.2603,0.2608,0.2667,0,0,0,0,0,0,0.2388,0.2396,0.2414,0.2437,0.2446,0.2504,0.2471,0.2473,0.25,0.2496,0.2494,0.2488,0.2461,0.2472,0.2474,0.2528,0.2448,0.2593,0.26,0.2606,0.2661,0.2674,0.2685,0,0,0,0,0,0.2386,0.2408,0.2415,0.2421,0.2467,0.2504,0.2513,0.251,0.2504,0.2528,0.2515,0.2488,0.2517,0.2475,0.2477,0.2533,0.259,0.2598,0.2606,0.2655,0.2671,0.2685,0,0,0,0,0,0,0.2382,0.2408,0.2416,0.2445,0.2474,0.2498,0.2517,0.2529,0.2548,0.2535,0.2514,0.2508,0.255,0.2542,0.2496,0.2606,0.2559,0.2568,0.2596,0.2611,0.2623,0.266,0.2449,0,0,0,0,0,0.2393,0.2419,0.2446,0.2472,0.2487,0.2515,0.2534,0.2536,0.2547,0.2554,0.2552,0.2563,0.2594,0.2595,0.2616,0.2662,0.2684,0.2711,0.2723,0.2733,0.277,0.2866,0.2889,0.2636,0.2636,0.2636,0,0,0.2393,0.2416,0.2427,0.2474,0.2498,0.2537,0.2522,0.2551,0.2588,0.2547,0.2594,0.2603,0.2619,0.2668,0.2689,0.2658,0.281,0.2743,0.2751,0.2784,0.2876,0.2901,0.2923,0.2641,0.2641,0.264,0,0,0.241,0.2436,0.2465,0.2498,0.2533,0.2556,0.257,0.2605,0.2625,0.2671,0.2663,0.2706,0.2737,0.2766,0.2785,0.2888,0.2876,0.29,0.2979,0.307,0.3091,0.3111,0.3127,0.3147,0.2898,0.2898,0.2898,0,0.2412,0.2457,0.248,0.2521,0.2554,0.2569,0.2616,0.265,0.2684,0.273,0.2687,0.2808,0.2797,0.2901,0.2926,0.2917,0.2942,0.2907,0.3084,0.3104,0.3123,0.3136,0.3157,0.2902,0.2902,0.2901,0.2901,0,0.2457,0.2493,0.2514,0.2578,0.2622,0.2658,0.2703,0.2734,0.276,0.2822,0.2928,0.293,0.3013,0.3017,0.2992,0.3137,0.31,0.3088,0.3037,0.3151,0.3157,0.3179,0.2907,0.2906,0.2905,0.2904,0,0,0.2442,0.253,0.253,0.26,0.2655,0.2715,0.2755,0.2848,0.2936,0.2971,0.31,0.315,0.3192,0.322,0.3214,0.3274,0.3388,0.3237,0.324,0.3236,0.3549,0.336,0.3364,0.3406,0.3412,0.3416,0.3483,0,0.2469,0.2583,0.2593,0.2703,0.2787,0.2799,0.286,0.2947,0.3025,0.3148,0.32,0.3323,0.3263,0.3311,0.3372,0.3402,0.3457,0.3369,0.3457,0.3459,0.3265,0.3388,0.3122,0.3148,0.3504,0.3507,0.351,0,0.2505,0.2593,0.272,0.2836,0.2865,0.2928,0.3068,0.3128,0.3273,0.3328,0.3451,0.3506,0.3616,0.3543,0.3661,0.3608,0.3602,0.3598,0.36,0.3429,0.3313,0.3105,0.3173,0.3545,0.3542,0.354,0.3537,0,0.2589,0.267,0.28,0.2844,0.2973,0.3025,0.3085,0.322,0.3285,0.3488,0.3555,0.371,0.3767,0.3827,0.3781,0.3756,0.3876,0.3841,0.3663,0.3646,0.3443,0.3399,0.3952,0.3951,0.3951,0.3951,0.3951,0,0.2677,0.2771,0.2859,0.2966,0.3092,0.3151,0.33,0.3365,0.3472,0.356,0.369,0.3746,0.3847,0.3889,0.3868,0.3809,0.395,0.3713,0.368,0.3447,0.3406,0.3774,0.3753,0.3954,0.3953,0.3953,0.3952,0,0.2804,0.2862,0.3006,0.3128,0.3166,0.3285,0.3368,0.3446,0.3554,0.3653,0.3703,0.3815,0.3852,0.3887,0.3957,0.388,0.3869,0.3805,0.3477,0.3404,0.3558,0.354,0.3667,0.3661,0.3657,0.3653,0.3649,0,0.2871,0.2976,0.312,0.3173,0.3241,0.3372,0.3414,0.3503,0.3533,0.364,0.3651,0.3747,0.3725,0.376,0.3689,0.3641,0.3736,0.3351,0.3267,0.3589,0.3545,0.3533,0.3521,0.3009,0.3001,0.2994,0.2989,0,0.3002,0.3057,0.3176,0.3242,0.3319,0.3363,0.3415,0.3429,0.347,0.35,0.3471,0.3478,0.351,0.3339,0.3296,0.3229,0.3346,0.3207,0.3698,0.3097,0.2968,0.2924,0.2935,0.2929,0.2935,0.2939,0.2943,0.2945,0.3043,0.3112,0.32,0.3225,0.3274,0.3223,0.3203,0.3199,0.3159,0.3072,0.3191,0.3087,0.3128,0.2905,0.2792,0.2722,0.295,0.2833,0.2856,0.2886,0.2773,0.2641,0.2516,0.2519,0.2522,0.2525,0.2527,0,0.3022,0.3081,0.3125,0.3109,0.3013,0.3109,0.3056,0.2938,0.2781,0.2804,0.2725,0.245,0.2346,0.239,0.2191,0.2168,0.2173,0.2076,0.2087,0.2148,0.2201,0.2056,0.1607,0.1604,0.1601,0.1599,0,0,0.3034,0.3061,0.3018,0.2787,0.2753,0.2606,0.2539,0.2413,0.2355,0.2161,0.2087,0.2234,0.2323,0.1944,0.1891,0.1721,0.192,0.1642,0.2386,0.2462,0.2512,0.2647,0.249,0,0,0,0,0]},{"header":{"parameterUnit":"m.s-1","parameterCategory":2,"la1":30.2991,"la2":30.254,"lo1":-89.0895,"lo2":-89.0444,"dy":0.0017,"dx":0.0017,"nx":28,"ny":28,"refTime":"2025-03-19T03:00:00:Z","depth":"2","parameterNumber":3,"parameterNumberName":"V-component_of_CURRENTS"},"data":[0,0,0,0,0,0,0,0,0,0,0,0,0,0,0,0,0,0,0,0,0,0,0,0,0,0,0,0,0,0,0,0,0,0,0,0,0,0,0,0,0,0,0,0,0,0,0,0,0,0,0,0,0,0,0,0,0,0,-0.0044,-0.0044,0,-0.0005,-0.0005,-0.0004,-0.0005,-0.0006,-0.0006,-0.0007,-0.0005,-0.0005,-0.0004,0,0,0,0,0,0,0,0,0,0,0,0,0,-0.0059,-0.0059,-0.0044,-0.0044,-0.0043,-0.0005,-0.0005,-0.0004,-0.0005,-0.0006,-0.0006,-0.0007,-0.0005,-0.0005,-0.0004,0,0,0,0,0,0,0,0,0,0,0,0,0,-0.0041,-0.0059,-0.0044,-0.0038,-0.0037,-0.0005,-0.0005,-0.0004,-0.0005,-0.0006,-0.0006,-0.0007,-0.0005,-0.0005,-0.0004,0.0013,0,0,-0.0002,-0.0002,0,0,0,0,0,0,0,0,-0.0042,-0.004,-0.004,-0.0039,-0.0037,-0.001,-0.0009,0.0,-0.0005,-0.0018,-0.0007,-0.0007,-0.0009,-0.0008,-0.0,0.0013,0.0013,-0.0002,-0.0002,-0.0001,-0.0001,0,0,0,0,0,0,0,-0.0043,-0.0042,-0.003,-0.0039,-0.0038,-0.0016,-0.0015,-0.0007,-0.0012,-0.0017,-0.0017,-0.0011,-0.0009,-0.0001,-0.0,0.0013,-0.0002,-0.0001,-0.0001,-0.0001,0.0049,0.005,0,0,0,0,0,0,-0.0048,-0.0043,-0.0031,-0.0029,-0.004,-0.0016,-0.0014,-0.0019,-0.0011,-0.001,-0.001,-0.0011,-0.0002,-0.0001,-0.0,0.0038,-0.0001,-0.0001,-0.0,0.0048,0.005,0.0051,0,0,0,0,0,0,-0.0049,-0.0048,-0.0033,-0.0033,-0.003,-0.0015,-0.002,-0.0018,-0.0007,-0.0005,-0.0005,-0.0002,-0.0002,-0.0001,0.001,0.0037,-0.0,0.0,0.0047,0.0049,0.005,0.0104,0,0,0,0,0,0,-0.005,-0.0049,-0.0051,-0.0034,-0.003,-0.0007,-0.0019,-0.0016,-0.0002,-0.0003,0.0002,0.0001,-0.0003,0.0009,0.0011,0.0038,0.0001,0.0046,0.0048,0.005,0.0101,0.0107,0.0112,0,0,0,0,0,-0.0051,-0.0042,-0.0052,-0.005,-0.0035,-0.0006,-0.0001,0.0007,-0.0001,0.0011,0.0009,0.0001,0.0021,0.001,0.0012,0.004,0.0045,0.0047,0.005,0.0098,0.0106,0.0112,0,0,0,0,0,0,-0.0043,-0.0041,-0.0051,-0.0043,-0.0026,-0.0005,0.0012,0.0011,0.0021,0.0017,0.0012,0.0012,0.0033,0.0027,0.0015,0.0059,0.0033,0.0036,0.007,0.0076,0.0082,0.0112,0.0001,0,0,0,0,0,-0.0045,-0.0045,-0.0034,-0.0027,-0.0017,-0.0005,0.0008,0.0011,0.0022,0.0026,0.003,0.0033,0.0044,0.0051,0.0057,0.0081,0.0068,0.01,0.0106,0.0111,0.0136,0.0139,0.0148,0.0057,0.0057,0.0057,0,0,-0.004,-0.0038,-0.0039,-0.0026,-0.0012,0.0012,0.0002,0.0025,0.0046,0.0024,0.0054,0.0051,0.0053,0.008,0.009,0.0079,0.0123,0.0113,0.0118,0.0141,0.0142,0.0151,0.0159,0.0059,0.0059,0.0058,0,0,-0.0016,-0.0027,-0.0013,-0.0001,0.0019,0.0029,0.0036,0.0057,0.0068,0.0089,0.0083,0.0101,0.011,0.0129,0.0136,0.0177,0.0149,0.0173,0.0232,0.0234,0.0241,0.0248,0.0213,0.0217,0.0179,0.0179,0.0179,0,-0.0009,0.0001,-0.0001,0.0021,0.0039,0.0038,0.0068,0.0083,0.0104,0.0137,0.0103,0.0153,0.014,0.0201,0.0208,0.0193,0.0174,0.0205,0.0242,0.0248,0.0254,0.0217,0.022,0.0182,0.0182,0.0181,0.0181,0,0.0027,0.0034,0.005,0.0068,0.0091,0.0115,0.0135,0.0167,0.0172,0.0194,0.0247,0.0233,0.0271,0.0263,0.0243,0.0296,0.0259,0.0244,0.0226,0.0267,0.0224,0.0226,0.0186,0.0185,0.0184,0.0183,0,0,0.0048,0.0068,0.0073,0.0095,0.0115,0.0148,0.0193,0.0254,0.0327,0.0315,0.0395,0.0392,0.0395,0.0403,0.0385,0.0383,0.0381,0.0334,0.0332,0.0301,0.0358,0.0304,0.0301,0.0369,0.0371,0.0372,0.03,0,0.0077,0.0112,0.0125,0.0179,0.0201,0.0231,0.0299,0.0354,0.0393,0.047,0.046,0.0518,0.0444,0.0472,0.0455,0.0414,0.0395,0.04,0.0323,0.0321,0.027,0.0305,0.0308,0.0244,0.0302,0.0302,0.0303,0,0.0111,0.0127,0.0165,0.025,0.0274,0.0318,0.0444,0.0507,0.0607,0.0645,0.0683,0.0675,0.0681,0.0605,0.0542,0.0546,0.046,0.0407,0.0402,0.0345,0.0273,0.0219,0.0245,0.0306,0.0306,0.0305,0.0305,0,0.0115,0.0174,0.0203,0.0218,0.0304,0.0365,0.0442,0.0562,0.067,0.0757,0.0826,0.082,0.0824,0.0732,0.0589,0.0574,0.0499,0.0463,0.0331,0.0324,0.0311,0.0301,0.0419,0.042,0.042,0.042,0.042,0,0.0135,0.0173,0.0211,0.0223,0.0356,0.0398,0.0573,0.0661,0.0799,0.0941,0.0914,0.0987,0.0857,0.0788,0.0643,0.0487,0.053,0.0356,0.0318,0.0324,0.0317,0.0367,0.0361,0.0417,0.0418,0.0418,0.0419,0,0.0145,0.0149,0.0214,0.0297,0.0352,0.0453,0.0673,0.0818,0.0908,0.1078,0.1106,0.1118,0.1022,0.0863,0.0711,0.0563,0.0419,0.0346,0.034,0.0303,0.0224,0.0223,0.0212,0.021,0.0208,0.0206,0.0205,0,0.0158,0.0165,0.0271,0.0371,0.042,0.058,0.0736,0.0873,0.1016,0.1158,0.1238,0.1191,0.117,0.0908,0.066,0.0407,0.0381,0.0234,0.0216,0.0248,0.0211,0.0212,0.0213,0.0201,0.0199,0.0198,0.0198,0,0.0203,0.0224,0.0294,0.048,0.0632,0.0806,0.0995,0.1104,0.1259,0.1355,0.1439,0.1417,0.1179,0.0929,0.0583,0.0408,0.0277,0.0205,0.0268,0.0252,0.0231,0.0197,0.0199,0.0189,0.019,0.019,0.0191,0.0191,0.0276,0.0352,0.046,0.066,0.0822,0.1002,0.1136,0.1293,0.1461,0.1574,0.1547,0.1498,0.1237,0.0789,0.0492,0.0188,0.022,0.0103,0.0109,0.0115,0.0126,0.0104,0.0037,0.0037,0.0037,0.0037,0.0037,0,0.0398,0.0496,0.0668,0.0871,0.1036,0.1102,0.1313,0.141,0.1546,0.1623,0.1647,0.1367,0.1092,0.0787,0.0338,0.0072,0.0061,-0.0028,0.0027,0.0037,0.0046,0.0056,-0.0053,-0.0054,-0.0055,-0.0056,0,0,0.0479,0.0656,0.0743,0.1032,0.1154,0.1336,0.1425,0.1535,0.1612,0.1637,0.16,0.1542,0.1184,0.0838,0.0476,0.0215,0.0184,0.0151,0.0252,0.0369,0.0381,0.0147,0.0177,0,0,0,0,0]}],[{"header":{"parameterUnit":"m.s-1","parameterCategory":2,"la1":30.2991,"la2":30.254,"lo1":-89.0895,"lo2":-89.0444,"dy":0.0017,"dx":0.0017,"nx":28,"ny":28,"refTime":"2025-03-19T03:00:00:Z","depth":"4","parameterNumber":2,"parameterNumberName":"U-component_of_CURRENTS"},"data":[0,0,0,0,0,0,0,0,0,0,0,0,0,0,0,0,0,0,0,0,0,0,0,0,0,0,0,0,0,0,0,0,0,0,0,0,0,0,0,0,0,0,0,0,0,0,0,0,0,0,0,0,0,0,0,0,0,0,0.1175,0.1176,0,0.1243,0.1244,0.1244,0.128,0.128,0.128,0.1281,0.134,0.1341,0.1342,0,0,0,0,0,0,0,0,0,0,0,0,0,0.1246,0.1243,0.1175,0.1177,0.1178,0.1243,0.1244,0.1244,0.128,0.128,0.1281,0.1281,0.134,0.1341,0.1342,0,0,0,0,0,0,0,0,0,0,0,0,0,0.125,0.1242,0.1175,0.1206,0.121,0.1243,0.1244,0.1244,0.1279,0.128,0.1281,0.1281,0.1339,0.1341,0.1343,0.1341,0,0,0.1348,0.1349,0,0,0,0,0,0,0,0,0.125,0.1247,0.12,0.1204,0.1208,0.1257,0.129,0.1278,0.1279,0.1249,0.1281,0.1282,0.1313,0.1317,0.1323,0.1344,0.1347,0.1348,0.1349,0.135,0.135,0,0,0,0,0,0,0,0.1249,0.1245,0.1198,0.1202,0.1207,0.1275,0.1274,0.1289,0.1274,0.1252,0.1255,0.1269,0.1315,0.1321,0.1325,0.1347,0.1348,0.135,0.1351,0.1351,0.148,0.1482,0,0,0,0,0,0,0.1238,0.1243,0.1196,0.1201,0.1235,0.1273,0.1272,0.1238,0.1274,0.1281,0.1268,0.127,0.1318,0.1323,0.1327,0.139,0.135,0.1352,0.1353,0.1478,0.148,0.1483,0,0,0,0,0,0,0.1238,0.1231,0.1194,0.1231,0.1231,0.127,0.1232,0.1239,0.128,0.1287,0.1294,0.1308,0.1319,0.1325,0.1365,0.139,0.1352,0.1354,0.1475,0.1478,0.1482,0.1475,0,0,0,0,0,0,0.1239,0.1229,0.1227,0.1227,0.1228,0.1228,0.1232,0.124,0.1287,0.1292,0.1323,0.1327,0.132,0.1362,0.1367,0.1392,0.1355,0.1472,0.1476,0.1481,0.1472,0.1478,0.1482,0,0,0,0,0,0.1241,0.1225,0.1225,0.1222,0.1212,0.1229,0.1236,0.1266,0.1289,0.1306,0.1331,0.1328,0.1394,0.1365,0.137,0.1396,0.147,0.1475,0.148,0.147,0.1476,0.1482,0,0,0,0,0,0,0.1269,0.1227,0.1227,0.1203,0.1225,0.1237,0.1264,0.1288,0.1322,0.1342,0.1344,0.1349,0.1396,0.1408,0.1376,0.1453,0.1438,0.1444,0.1428,0.1435,0.144,0.1472,0.1357,0,0,0,0,0,0.1268,0.1235,0.1231,0.1221,0.1228,0.1255,0.1278,0.1302,0.1325,0.1343,0.1362,0.1395,0.1417,0.1435,0.1457,0.1492,0.1525,0.1522,0.1527,0.153,0.1565,0.1635,0.1648,0.15,0.15,0.15,0,0,0.1286,0.1256,0.1246,0.1226,0.1243,0.1251,0.127,0.1312,0.1332,0.1343,0.1386,0.1413,0.1434,0.1468,0.1492,0.1482,0.1586,0.1537,0.154,0.1573,0.1641,0.1656,0.1668,0.1504,0.1503,0.1503,0,0,0.129,0.1269,0.1245,0.1247,0.1272,0.1288,0.1307,0.1338,0.1366,0.1411,0.1425,0.1475,0.1509,0.1525,0.1536,0.1593,0.1611,0.1608,0.1655,0.172,0.1732,0.1744,0.1777,0.1791,0.1609,0.1609,0.1609,0,0.1325,0.1258,0.1257,0.1236,0.1247,0.1302,0.1307,0.1338,0.1388,0.1431,0.1433,0.1532,0.1537,0.1589,0.1606,0.1603,0.1641,0.1614,0.1724,0.1737,0.1748,0.178,0.1796,0.1609,0.1609,0.1609,0.1609,0,0.1285,0.1258,0.1252,0.1223,0.1254,0.1265,0.1306,0.1354,0.1409,0.1461,0.1553,0.1574,0.1648,0.1644,0.1637,0.1728,0.1726,0.1716,0.1698,0.1762,0.1792,0.1808,0.161,0.161,0.161,0.1609,0,0,0.1278,0.123,0.1224,0.1206,0.1242,0.1251,0.1312,0.1378,0.1453,0.1517,0.162,0.165,0.1723,0.1745,0.1753,0.18,0.1885,0.1802,0.1805,0.1818,0.2025,0.1864,0.1866,0.1898,0.1902,0.1905,0.2,0,0.1247,0.1155,0.1186,0.1173,0.1133,0.1223,0.1298,0.139,0.1475,0.1595,0.1669,0.1781,0.1742,0.181,0.1847,0.1903,0.1936,0.186,0.1979,0.1983,0.1817,0.1883,0.1916,0.2012,0.2016,0.2019,0.2021,0,0.1159,0.1115,0.1049,0.1112,0.1126,0.1204,0.1327,0.1404,0.1597,0.1677,0.1802,0.1891,0.2003,0.1963,0.2072,0.2034,0.2041,0.2053,0.2057,0.1931,0.1854,0.1947,0.2051,0.2049,0.2047,0.2045,0.2043,0,0.0995,0.102,0.0951,0.0948,0.1043,0.1143,0.1284,0.1468,0.1597,0.178,0.1898,0.2024,0.2132,0.2178,0.2199,0.2171,0.2304,0.2261,0.2109,0.2097,0.2213,0.2201,0.2332,0.2332,0.2332,0.2332,0.2331,0,0.0828,0.0797,0.0911,0.084,0.0957,0.1105,0.1287,0.1414,0.1708,0.1854,0.1979,0.2071,0.2201,0.2281,0.227,0.2241,0.236,0.2144,0.2124,0.2204,0.219,0.2223,0.2209,0.2335,0.2334,0.2334,0.2333,0,0.0597,0.0608,0.0595,0.0755,0.0836,0.0958,0.134,0.1492,0.1741,0.1935,0.2025,0.2204,0.2265,0.2339,0.2414,0.2319,0.2316,0.226,0.2346,0.2326,0.2048,0.2034,0.2132,0.2127,0.2123,0.212,0.2117,0,0.0468,0.0375,0.051,0.0594,0.0703,0.0934,0.1115,0.1456,0.164,0.1942,0.2031,0.2202,0.2249,0.2242,0.2298,0.23,0.2242,0.223,0.2134,0.2063,0.2036,0.2027,0.2017,0.2111,0.211,0.2109,0.2108,0,0.0258,0.0293,0.0323,0.05,0.0694,0.0844,0.116,0.1291,0.1639,0.1849,0.1987,0.2045,0.2099,0.213,0.2158,0.2132,0.2248,0.2189,0.2195,0.2105,0.2039,0.2014,0.2009,0.2094,0.2096,0.2098,0.2098,0,0.0195,0.0229,0.0308,0.0511,0.0699,0.0823,0.093,0.1202,0.1424,0.1796,0.1789,0.1915,0.2058,0.2039,0.2046,0.2045,0.1998,0.1912,0.1932,0.1948,0.1839,0.1725,0.1691,0,0,0,0,0,0.0174,0.0213,0.0346,0.0545,0.0726,0.0817,0.1028,0.1149,0.143,0.1488,0.1688,0.1717,0.1765,0.1827,0.1786,0.1936,0.1986,0.1875,0.1892,0.202,0.2035,0.1921,0,0,0,0,0,0,0.0147,0.0218,0.0333,0.059,0.0708,0.0873,0.096,0.1074,0.1157,0.1399,0.1436,0.1609,0.1678,0.1784,0.1756,0.1777,0.1747,0.1983,0.1977,0.2011,0.2025,0.2037,0.1925,0,0,0,0,0]},{"header":{"parameterUnit":"m.s-1","parameterCategory":2,"la1":30.2991,"la2":30.254,"lo1":-89.0895,"lo2":-89.0444,"dy":0.0017,"dx":0.0017,"nx":28,"ny":28,"refTime":"2025-03-19T03:00:00:Z","depth":"4","parameterNumber":3,"parameterNumberName":"V-component_of_CURRENTS"},"data":[0,0,0,0,0,0,0,0,0,0,0,0,0,0,0,0,0,0,0,0,0,0,0,0,0,0,0,0,0,0,0,0,0,0,0,0,0,0,0,0,0,0,0,0,0,0,0,0,0,0,0,0,0,0,0,0,0,0,0.0016,0.0017,0,0.0041,0.0041,0.0041,0.0039,0.0039,0.0038,0.0038,0.0041,0.0041,0.0041,0,0,0,0,0,0,0,0,0,0,0,0,0,-0.0018,-0.0017,0.0016,0.0017,0.0017,0.0041,0.0041,0.0041,0.0039,0.0039,0.0038,0.0038,0.0041,0.0041,0.0041,0,0,0,0,0,0,0,0,0,0,0,0,0,-0.0001,-0.0017,0.0016,0.002,0.0021,0.0041,0.0041,0.0041,0.0039,0.0038,0.0038,0.0038,0.0041,0.0041,0.0041,0.0051,0,0,0.0043,0.0043,0,0,0,0,0,0,0,0,-0.0002,0.0,0.0019,0.002,0.0021,0.0038,0.003,0.0044,0.0039,0.003,0.0038,0.0038,0.0039,0.004,0.0043,0.0051,0.0051,0.0043,0.0043,0.0043,0.0043,0,0,0,0,0,0,0,-0.0003,-0.0001,0.0024,0.002,0.0021,0.0026,0.0028,0.0033,0.0035,0.0031,0.0031,0.0037,0.0039,0.0043,0.0043,0.0051,0.0043,0.0043,0.0043,0.0044,0.0056,0.0056,0,0,0,0,0,0,-0.0003,-0.0002,0.0023,0.0025,0.001,0.0027,0.0029,0.0031,0.0035,0.0036,0.0037,0.0037,0.0042,0.0042,0.0043,0.0065,0.0043,0.0044,0.0044,0.0056,0.0056,0.0056,0,0,0,0,0,0,-0.0004,-0.0001,0.0022,0.0014,0.0017,0.0028,0.0031,0.0032,0.0037,0.004,0.004,0.0041,0.0042,0.0042,0.0047,0.0065,0.0044,0.0044,0.0056,0.0056,0.0056,0.0102,0,0,0,0,0,0,-0.0005,-0.0002,-0.0001,0.0014,0.0018,0.0039,0.0031,0.0033,0.0041,0.0041,0.0044,0.0043,0.0042,0.0046,0.0047,0.0065,0.0045,0.0056,0.0056,0.0056,0.0101,0.0104,0.0107,0,0,0,0,0,-0.0006,0.0004,-0.0001,0.0002,0.0019,0.004,0.0042,0.0047,0.0042,0.0049,0.0045,0.0043,0.0047,0.0046,0.0048,0.0066,0.0055,0.0056,0.0056,0.0099,0.0103,0.0107,0,0,0,0,0,0,-0.0007,0.0005,-0.0,0.0013,0.0025,0.004,0.0052,0.005,0.0053,0.005,0.0047,0.0047,0.0054,0.005,0.0049,0.0067,0.005,0.0051,0.0083,0.0087,0.009,0.01,0.0045,0,0,0,0,0,-0.0008,-0.0,0.0012,0.0022,0.0031,0.0039,0.0047,0.0048,0.0055,0.0056,0.0059,0.0056,0.0056,0.0063,0.0059,0.0076,0.0054,0.0086,0.0089,0.0092,0.0099,0.0073,0.0075,0.0056,0.0056,0.0056,0,0,-0.0007,0.0002,0.0005,0.0022,0.0033,0.0062,0.0043,0.006,0.0078,0.0056,0.008,0.0065,0.0059,0.0073,0.0077,0.0075,0.0084,0.0092,0.0094,0.01,0.0073,0.0075,0.0077,0.0057,0.0056,0.0056,0,0,0.0018,0.0011,0.0034,0.0049,0.0068,0.0074,0.0079,0.0094,0.0094,0.0109,0.0094,0.0085,0.0098,0.0094,0.0094,0.0111,0.0094,0.0114,0.0151,0.0126,0.0127,0.0128,0.0099,0.0097,0.0125,0.0125,0.0125,0,0.0022,0.0058,0.0044,0.008,0.0104,0.0084,0.0126,0.0123,0.0133,0.0137,0.0121,0.012,0.0108,0.0123,0.0129,0.0119,0.0103,0.0141,0.0131,0.0131,0.0132,0.0101,0.0098,0.0127,0.0127,0.0126,0.0126,0,0.0073,0.0106,0.0126,0.0163,0.0175,0.0209,0.0207,0.021,0.0201,0.0197,0.0196,0.0171,0.0171,0.0165,0.0156,0.016,0.0146,0.0131,0.0125,0.0137,0.0103,0.0099,0.013,0.0129,0.0129,0.0128,0,0,0.0083,0.0152,0.0161,0.0203,0.0228,0.0249,0.0266,0.0284,0.0296,0.0276,0.0293,0.0272,0.0242,0.0239,0.0217,0.02,0.0178,0.0177,0.0175,0.0154,0.0125,0.0115,0.0109,0.0168,0.0168,0.0168,0.0099,0,0.014,0.0244,0.0243,0.0324,0.0385,0.0362,0.0385,0.0382,0.0364,0.0365,0.0318,0.0323,0.0276,0.0279,0.0247,0.02,0.0172,0.0198,0.0111,0.0108,0.0103,0.0106,0.0167,0.0096,0.0095,0.0094,0.0094,0,0.0206,0.027,0.0385,0.0439,0.0456,0.0504,0.0529,0.052,0.0494,0.0475,0.0445,0.0406,0.0376,0.033,0.0243,0.0266,0.0199,0.0152,0.0148,0.0123,0.0092,0.0081,0.0087,0.0087,0.0088,0.0088,0.0089,0,0.0282,0.0361,0.0466,0.0494,0.0551,0.0598,0.0604,0.059,0.0584,0.0549,0.0552,0.0486,0.0468,0.0376,0.0262,0.0261,0.0156,0.0138,0.0061,0.0059,0.0068,0.0067,0.0069,0.0069,0.0069,0.0069,0.0069,0,0.0368,0.0443,0.0531,0.0605,0.0682,0.0685,0.0739,0.0716,0.0709,0.07,0.062,0.0608,0.0481,0.04,0.0285,0.0161,0.0166,0.0068,0.0043,0.0087,0.009,0.0064,0.0065,0.0066,0.0067,0.0068,0.0068,0,0.0443,0.0512,0.0621,0.0717,0.0745,0.0793,0.0829,0.0852,0.083,0.0819,0.0819,0.0721,0.0605,0.0465,0.0311,0.0205,0.008,0.003,0.0087,0.0066,-0.0008,-0.0004,-0.0053,-0.0054,-0.0055,-0.0055,-0.0056,0,0.0483,0.0576,0.0698,0.0742,0.0805,0.087,0.0914,0.0921,0.0928,0.0874,0.0875,0.0789,0.0697,0.0471,0.0313,0.01,0.0063,-0.0008,-0.0009,0.0,-0.0019,-0.0015,-0.001,-0.0057,-0.0057,-0.0057,-0.0057,0,0.0542,0.0611,0.0692,0.0805,0.0894,0.0924,0.0991,0.102,0.099,0.1004,0.0922,0.0798,0.0661,0.047,0.0309,0.0149,0.0038,-0.0016,-0.0015,-0.0018,-0.0005,-0.0023,-0.0017,-0.006,-0.006,-0.0059,-0.0059,0,0.0557,0.062,0.0744,0.082,0.0906,0.0949,0.0981,0.1004,0.1017,0.0982,0.0955,0.08,0.0724,0.0495,0.0338,0.0191,0.015,0.0089,0.0083,0.0084,0.0139,0.0176,0.016,0,0,0,0,0,0.0565,0.065,0.0728,0.0824,0.0899,0.0938,0.1003,0.1023,0.105,0.1005,0.0978,0.0844,0.0611,0.0509,0.0362,0.0314,0.0117,0.0134,0.0042,-0.0074,-0.0071,-0.003,0,0,0,0,0,0,0.0582,0.0684,0.0733,0.0797,0.0842,0.0923,0.096,0.0975,0.094,0.0946,0.0831,0.0794,0.0577,0.0697,0.0354,0.031,0.0227,0.004,0.0036,-0.0075,-0.0073,-0.007,-0.0027,0,0,0,0,0]}]]